Location: Isle of Man Observatory
(54.1776°N, 4.6264°W)
Time: 07:17:32
(UTC+02:00)

ISS - Pass Details

Date: 20 May 2026
Orbit: 416 x 422 km, 51.6° (Epoch: 11 June)

Event Time Altitude Azimuth Distance (km) Brightness Sun altitude
Rises 00:48:08 0° 275° (W) 2,359 0.4 -13.6°
Reaches altitude 10° 00:51:00 10° 248° (WSW) 1,493 -1.0 -13.7°
Maximum altitude 00:52:46 14° 217° (SW) 1,288 -1.6 -13.8°
Enters shadow 00:52:53 14° 214° (SW) 1,289 -1.6 -13.8°
